Time,TemperatureF,DewpointF,PressureIn,WindDirection,WindDirectionDegrees,WindSpeedMPH,WindSpeedGustMPH,Humidity,HourlyPrecipIn,Conditions,Clouds,dailyrainin,SolarRadiationWatts/m^2,SoftwareType,DateUTC
2013-01-17 00:05:00,48.0,48.0,29.55,SSE,166,3.0,4.0,100,0.00,,,0.19,0.000000,,2013-01-17 05:05:00,
2013-01-17 00:12:00,48.0,48.0,29.55,SSE,166,3.0,4.0,100,0.00,,,0.19,0.000000,,2013-01-17 05:12:00,
2013-01-17 00:43:00,50.0,50.0,29.55,SSW,193,2.0,5.0,100,0.00,,,0.19,0.000000,,2013-01-17 05:43:00,
2013-01-17 00:53:00,50.0,50.0,29.55,SSW,193,2.0,5.0,100,0.00,,,0.19,0.000000,,2013-01-17 05:53:00,
2013-01-17 01:03:00,50.0,50.0,29.55,SSW,193,2.0,5.0,100,0.00,,,0.19,0.000000,,2013-01-17 06:03:00,
2013-01-17 01:12:00,50.0,50.0,29.55,SSW,193,2.0,5.0,100,0.00,,,0.19,0.000000,,2013-01-17 06:12:00,
2013-01-17 01:33:00,50.0,50.0,29.56,NW,314,2.0,5.0,100,0.03,,,0.21,0.000000,,2013-01-17 06:33:00,
2013-01-17 01:42:00,50.0,50.0,29.56,NW,314,2.0,5.0,100,0.03,,,0.21,0.000000,,2013-01-17 06:42:00,
2013-01-17 01:53:00,50.0,50.0,29.56,NW,314,2.0,5.0,100,0.03,,,0.21,0.000000,,2013-01-17 06:53:00,
2013-01-17 02:02:00,50.0,50.0,29.56,NW,314,2.0,5.0,100,0.03,,,0.21,0.000000,,2013-01-17 07:02:00,
2013-01-17 02:12:00,50.0,50.0,29.56,NW,314,2.0,5.0,100,0.03,,,0.21,0.000000,,2013-01-17 07:12:00,
2013-01-17 02:43:00,50.0,50.0,29.56,North,350,2.0,5.0,100,0.07,,,0.28,0.000000,,2013-01-17 07:43:00,
2013-01-17 02:53:00,50.0,50.0,29.56,North,350,2.0,5.0,100,0.07,,,0.28,0.000000,,2013-01-17 07:53:00,
2013-01-17 03:02:00,50.0,50.0,29.56,North,350,2.0,5.0,100,0.07,,,0.28,0.000000,,2013-01-17 08:02:00,
2013-01-17 03:12:00,50.0,50.0,29.56,North,350,2.0,5.0,100,0.07,,,0.28,0.000000,,2013-01-17 08:12:00,
2013-01-17 03:43:00,49.0,49.0,29.55,ENE,78,1.0,7.0,100,0.06,,,0.34,0.000000,,2013-01-17 08:43:00,
2013-01-17 03:53:00,49.0,49.0,29.55,ENE,78,1.0,7.0,100,0.06,,,0.34,0.000000,,2013-01-17 08:53:00,
2013-01-17 04:03:00,49.0,49.0,29.55,ENE,78,1.0,7.0,100,0.06,,,0.34,0.000000,,2013-01-17 09:03:00,
2013-01-17 04:12:00,49.0,49.0,29.55,ENE,78,1.0,7.0,100,0.06,,,0.34,0.000000,,2013-01-17 09:12:00,
2013-01-17 04:33:00,49.0,49.0,29.55,NNE,18,3.0,9.0,100,0.13,,,0.47,0.000000,,2013-01-17 09:33:00,
2013-01-17 04:43:00,49.0,49.0,29.55,NNE,18,3.0,9.0,100,0.13,,,0.47,0.000000,,2013-01-17 09:43:00,
2013-01-17 04:53:00,49.0,49.0,29.55,NNE,18,3.0,9.0,100,0.13,,,0.47,0.000000,,2013-01-17 09:53:00,
2013-01-17 05:02:00,49.0,49.0,29.55,NNE,18,3.0,9.0,100,0.13,,,0.47,0.000000,,2013-01-17 10:02:00,
2013-01-17 05:12:00,49.0,49.0,29.55,NNE,18,3.0,9.0,100,0.13,,,0.47,0.000000,,2013-01-17 10:12:00,
2013-01-17 05:33:00,48.0,48.0,29.56,South,184,4.0,12.0,100,0.08,,,0.53,0.000000,,2013-01-17 10:33:00,
2013-01-17 05:43:00,48.0,48.0,29.56,South,184,4.0,12.0,100,0.08,,,0.53,0.000000,,2013-01-17 10:43:00,
2013-01-17 05:53:00,48.0,48.0,29.56,South,184,4.0,12.0,100,0.08,,,0.53,0.000000,,2013-01-17 10:53:00,
2013-01-17 06:03:00,48.0,48.0,29.56,South,184,4.0,12.0,100,0.08,,,0.53,0.000000,,2013-01-17 11:03:00,
2013-01-17 06:12:00,48.0,48.0,29.56,South,184,4.0,12.0,100,0.08,,,0.53,0.000000,,2013-01-17 11:12:00,
2013-01-17 06:33:00,48.0,48.0,29.56,NNE,31,4.0,9.0,100,0.03,,,0.53,0.000000,,2013-01-17 11:33:00,
2013-01-17 06:43:00,48.0,48.0,29.56,NNE,31,4.0,9.0,100,0.03,,,0.53,0.000000,,2013-01-17 11:43:00,
2013-01-17 06:53:00,48.0,48.0,29.56,NNE,31,4.0,9.0,100,0.03,,,0.53,0.000000,,2013-01-17 11:53:00,
2013-01-17 07:03:00,48.0,48.0,29.56,NNE,31,4.0,9.0,100,0.03,,,0.53,0.000000,,2013-01-17 12:03:00,
2013-01-17 07:12:00,48.0,48.0,29.56,NNE,31,4.0,9.0,100,0.03,,,0.53,0.000000,,2013-01-17 12:12:00,
2013-01-17 07:33:00,49.0,49.0,29.58,NE,51,5.0,9.0,100,0.02,,,0.55,0.000000,,2013-01-17 12:33:00,
2013-01-17 07:43:00,49.0,49.0,29.58,NE,51,5.0,9.0,100,0.02,,,0.55,0.000000,,2013-01-17 12:43:00,
2013-01-17 07:53:00,49.0,49.0,29.58,NE,51,5.0,9.0,100,0.02,,,0.55,0.000000,,2013-01-17 12:53:00,
2013-01-17 08:03:00,49.0,49.0,29.58,NE,51,5.0,9.0,100,0.02,,,0.55,0.000000,,2013-01-17 13:03:00,
2013-01-17 08:12:00,49.0,49.0,29.58,NE,51,5.0,9.0,100,0.02,,,0.55,0.000000,,2013-01-17 13:12:00,
2013-01-17 08:33:00,49.0,49.0,29.61,North,356,4.0,8.0,100,0.03,,,0.57,3.000000,,2013-01-17 13:33:00,
2013-01-17 08:43:00,49.0,49.0,29.61,North,356,4.0,8.0,100,0.03,,,0.57,3.000000,,2013-01-17 13:43:00,
2013-01-17 08:53:00,49.0,49.0,29.61,North,356,4.0,8.0,100,0.03,,,0.57,3.000000,,2013-01-17 13:53:00,
2013-01-17 09:03:00,49.0,49.0,29.61,North,356,4.0,8.0,100,0.03,,,0.57,3.000000,,2013-01-17 14:03:00,
2013-01-17 09:13:00,49.0,49.0,29.61,North,356,4.0,8.0,100,0.03,,,0.57,3.000000,,2013-01-17 14:13:00,
2013-01-17 09:33:00,48.0,48.0,29.62,NNE,26,4.0,11.0,100,0.09,,,0.66,26.000000,,2013-01-17 14:33:00,
2013-01-17 09:43:00,48.0,48.0,29.62,NNE,26,4.0,11.0,100,0.09,,,0.66,26.000000,,2013-01-17 14:43:00,
2013-01-17 09:53:00,48.0,48.0,29.62,NNE,26,4.0,11.0,100,0.09,,,0.66,26.000000,,2013-01-17 14:53:00,
2013-01-17 10:03:00,48.0,48.0,29.62,NNE,26,4.0,11.0,100,0.09,,,0.66,26.000000,,2013-01-17 15:03:00,
2013-01-17 10:13:00,48.0,48.0,29.62,NNE,26,4.0,11.0,100,0.09,,,0.66,26.000000,,2013-01-17 15:13:00,
2013-01-17 10:33:00,49.0,49.0,29.63,NNE,17,5.0,18.0,100,0.05,,,0.71,38.000000,,2013-01-17 15:33:00,
2013-01-17 10:43:00,49.0,49.0,29.63,NNE,17,5.0,18.0,100,0.05,,,0.71,38.000000,,2013-01-17 15:43:00,
2013-01-17 10:53:00,49.0,49.0,29.63,NNE,17,5.0,18.0,100,0.05,,,0.71,38.000000,,2013-01-17 15:53:00,
2013-01-17 11:03:00,49.0,49.0,29.63,NNE,17,5.0,18.0,100,0.05,,,0.71,38.000000,,2013-01-17 16:03:00,
2013-01-17 11:12:00,49.0,49.0,29.63,NNE,17,5.0,18.0,100,0.05,,,0.71,38.000000,,2013-01-17 16:12:00,
2013-01-17 11:44:00,47.0,47.0,29.57,NE,42,7.0,16.0,100,0.01,,,0.72,62.000000,,2013-01-17 16:44:00,
2013-01-17 11:53:00,47.0,47.0,29.57,NE,42,7.0,16.0,100,0.01,,,0.72,62.000000,,2013-01-17 16:53:00,
2013-01-17 12:03:00,47.0,47.0,29.57,NE,42,7.0,16.0,100,0.01,,,0.72,62.000000,,2013-01-17 17:03:00,
2013-01-17 12:13:00,47.0,47.0,29.57,NE,42,7.0,16.0,100,0.01,,,0.72,62.000000,,2013-01-17 17:13:00,
2013-01-17 12:33:00,47.0,47.0,29.56,NE,49,4.0,14.0,100,0.04,,,0.73,43.000000,,2013-01-17 17:33:00,
2013-01-17 12:43:00,47.0,47.0,29.56,NE,49,4.0,14.0,100,0.04,,,0.73,43.000000,,2013-01-17 17:43:00,
2013-01-17 12:54:00,47.0,47.0,29.56,NE,49,4.0,14.0,100,0.04,,,0.73,43.000000,,2013-01-17 17:54:00,
2013-01-17 13:04:00,47.0,47.0,29.56,NE,49,4.0,14.0,100,0.04,,,0.73,43.000000,,2013-01-17 18:04:00,
2013-01-17 13:13:00,47.0,47.0,29.56,NE,49,4.0,14.0,100,0.04,,,0.73,43.000000,,2013-01-17 18:13:00,
2013-01-17 13:34:00,49.0,49.0,29.53,NE,40,7.0,15.0,100,0.09,,,0.74,37.000000,,2013-01-17 18:34:00,
2013-01-17 13:44:00,49.0,49.0,29.53,NE,40,7.0,15.0,100,0.09,,,0.74,37.000000,,2013-01-17 18:44:00,
2013-01-17 13:54:00,49.0,49.0,29.53,NE,40,7.0,15.0,100,0.09,,,0.74,37.000000,,2013-01-17 18:54:00,
2013-01-17 14:04:00,49.0,49.0,29.53,NE,40,7.0,15.0,100,0.09,,,0.74,37.000000,,2013-01-17 19:04:00,
2013-01-17 14:13:00,49.0,49.0,29.53,NE,40,7.0,15.0,100,0.09,,,0.74,37.000000,,2013-01-17 19:13:00,
2013-01-17 14:43:00,48.0,48.0,29.49,NW,321,5.0,27.0,100,0.03,,,0.76,46.000000,,2013-01-17 19:43:00,
2013-01-17 14:54:00,48.0,48.0,29.49,NW,321,5.0,27.0,100,0.03,,,0.76,46.000000,,2013-01-17 19:54:00,
2013-01-17 15:03:00,48.0,48.0,29.49,NW,321,5.0,27.0,100,0.03,,,0.76,46.000000,,2013-01-17 20:03:00,
2013-01-17 15:13:00,48.0,48.0,29.49,NW,321,5.0,27.0,100,0.03,,,0.76,46.000000,,2013-01-17 20:13:00,
2013-01-17 15:43:00,46.0,46.0,29.48,NE,54,8.0,17.0,100,0.01,,,0.77,24.000000,,2013-01-17 20:43:00,
2013-01-17 15:54:00,46.0,46.0,29.48,NE,54,8.0,17.0,100,0.01,,,0.77,24.000000,,2013-01-17 20:54:00,
2013-01-17 16:03:00,46.0,46.0,29.48,NE,54,8.0,17.0,100,0.01,,,0.77,24.000000,,2013-01-17 21:03:00,
2013-01-17 16:13:00,46.0,46.0,29.48,NE,54,8.0,17.0,100,0.01,,,0.77,24.000000,,2013-01-17 21:13:00,
2013-01-17 16:34:00,45.0,45.0,29.48,NE,35,10.0,21.0,100,0.03,,,0.80,14.000000,,2013-01-17 21:34:00,
2013-01-17 16:43:00,45.0,45.0,29.48,NE,35,10.0,21.0,100,0.03,,,0.80,14.000000,,2013-01-17 21:43:00,
2013-01-17 16:53:00,45.0,45.0,29.48,NE,35,10.0,21.0,100,0.03,,,0.80,14.000000,,2013-01-17 21:53:00,
2013-01-17 17:04:00,45.0,45.0,29.48,NE,35,10.0,21.0,100,0.03,,,0.80,14.000000,,2013-01-17 22:04:00,
2013-01-17 17:12:00,45.0,45.0,29.48,NE,35,10.0,21.0,100,0.03,,,0.80,14.000000,,2013-01-17 22:12:00,
2013-01-17 17:33:00,44.0,44.0,29.49,ENE,71,12.0,36.0,99,0.05,,,0.85,2.000000,,2013-01-17 22:33:00,
2013-01-17 17:43:00,44.0,44.0,29.49,ENE,71,12.0,36.0,99,0.05,,,0.85,2.000000,,2013-01-17 22:43:00,
2013-01-17 17:53:00,44.0,44.0,29.49,ENE,71,12.0,36.0,99,0.05,,,0.85,2.000000,,2013-01-17 22:53:00,
2013-01-17 18:03:00,44.0,44.0,29.49,ENE,71,12.0,36.0,99,0.05,,,0.85,2.000000,,2013-01-17 23:03:00,
2013-01-17 18:12:00,44.0,44.0,29.49,ENE,71,12.0,36.0,99,0.05,,,0.85,2.000000,,2013-01-17 23:12:00,
2013-01-17 18:43:00,42.0,42.0,29.52,NE,51,10.0,25.0,100,0.18,,,1.03,0.000000,,2013-01-17 23:43:00,
2013-01-17 18:53:00,42.0,42.0,29.52,NE,51,10.0,25.0,100,0.18,,,1.03,0.000000,,2013-01-17 23:53:00,
2013-01-17 19:03:00,42.0,42.0,29.52,NE,51,10.0,25.0,100,0.18,,,1.03,0.000000,,2013-01-18 00:03:00,
2013-01-17 19:12:00,42.0,42.0,29.52,NE,51,10.0,25.0,100,0.18,,,1.03,0.000000,,2013-01-18 00:12:00,
2013-01-17 19:43:00,39.0,38.0,29.54,NE,47,12.0,31.0,98,0.15,,,1.18,0.000000,,2013-01-18 00:43:00,
2013-01-17 19:53:00,39.0,38.0,29.54,NE,47,12.0,31.0,98,0.15,,,1.18,0.000000,,2013-01-18 00:53:00,
2013-01-17 20:03:00,39.0,38.0,29.54,NE,47,12.0,31.0,98,0.15,,,1.18,0.000000,,2013-01-18 01:03:00,
2013-01-17 20:13:00,39.0,38.0,29.54,NE,47,12.0,31.0,98,0.15,,,1.18,0.000000,,2013-01-18 01:13:00,
2013-01-17 20:33:00,33.0,32.0,29.55,NNE,30,9.0,32.0,98,0.20,,,1.38,0.000000,,2013-01-18 01:33:00,
2013-01-17 20:43:00,33.0,32.0,29.55,NNE,30,9.0,32.0,98,0.20,,,1.38,0.000000,,2013-01-18 01:43:00,
2013-01-17 20:53:00,33.0,32.0,29.55,NNE,30,9.0,32.0,98,0.20,,,1.38,0.000000,,2013-01-18 01:53:00,
2013-01-17 21:03:00,33.0,32.0,29.55,NNE,30,9.0,32.0,98,0.20,,,1.38,0.000000,,2013-01-18 02:03:00,
2013-01-17 21:12:00,33.0,32.0,29.55,NNE,30,9.0,32.0,98,0.20,,,1.38,0.000000,,2013-01-18 02:12:00,
2013-01-17 21:43:00,33.0,33.0,29.61,SSW,199,4.0,26.0,100,0.01,,,1.39,0.000000,,2013-01-18 02:43:00,
2013-01-17 21:53:00,33.0,33.0,29.61,SSW,199,4.0,26.0,100,0.01,,,1.39,0.000000,,2013-01-18 02:53:00,
2013-01-17 22:03:00,33.0,33.0,29.61,SSW,199,4.0,26.0,100,0.01,,,1.39,0.000000,,2013-01-18 03:03:00,
2013-01-17 22:13:00,33.0,33.0,29.61,SSW,199,4.0,26.0,100,0.01,,,1.39,0.000000,,2013-01-18 03:13:00,
2013-01-17 22:33:00,32.0,32.0,29.60,SW,220,5.0,15.0,100,0.00,,,1.39,0.000000,,2013-01-18 03:33:00,
2013-01-17 22:43:00,32.0,32.0,29.60,SW,220,5.0,15.0,100,0.00,,,1.39,0.000000,,2013-01-18 03:43:00,
2013-01-17 22:53:00,32.0,32.0,29.60,SW,220,5.0,15.0,100,0.00,,,1.39,0.000000,,2013-01-18 03:53:00,
2013-01-17 23:02:00,32.0,32.0,29.60,SW,220,5.0,15.0,100,0.00,,,1.39,0.000000,,2013-01-18 04:02:00,
2013-01-17 23:12:00,32.0,32.0,29.60,SW,220,5.0,15.0,100,0.00,,,1.39,0.000000,,2013-01-18 04:12:00,
2013-01-17 23:33:00,32.0,32.0,29.69,WNW,301,4.0,13.0,100,0.00,,,1.39,0.000000,,2013-01-18 04:33:00,
2013-01-17 23:43:00,32.0,32.0,29.69,WNW,301,4.0,13.0,100,0.00,,,1.39,0.000000,,2013-01-18 04:43:00,
2013-01-17 23:53:00,32.0,32.0,29.69,WNW,301,4.0,13.0,100,0.00,,,1.39,0.000000,,2013-01-18 04:53:00,